Simultaneous Nadir Overpasses (SNOs) Predictions

Prediction of SNOs between GOES-16 and NOAA-19 Satellite Orbit:

Table of predicted SNOs for the next 14.0 days since TLE Epoch: 11/22/2019
Index Date Time (GOES-16) GOES-16 Lat,Lon NOAA-19 Lat,Lon Distance(km) Time Diff (sec)
1 11/24/2019 22:34:23 -0.01, -75.20 -0.75, -78.40 366.25 80
2 11/25/2019 22:25:24 -0.00, -75.20 -0.11, -75.55 40.89 80
3 11/26/2019 22:13:45 -0.00, -75.21 0.59, -72.72 284.76 80
4 11/29/2019 10:34:51 0.00, -75.23 0.56, -77.71 282.01 80
5 11/30/2019 10:20:31 0.00, -75.24 -0.08, -74.86 43.97 80
6 12/01/2019 10:08:53 0.00, -75.25 -0.77, -72.02 370.13 80
7 12/03/2019 22:29:56 -0.00, -75.29 -0.42, -76.99 194.94 80
8 12/04/2019 22:20:57 0.00, -75.31 0.28, -74.15 131.97 80
9 12/05/2019 22:09:18 0.00, -75.32 0.92, -71.30 458.99 80




NCC Satellite Simultaneous Nadir Overpasses (SNOs) Prediction Service
